Wind_Speed
5 3 7 11 13 15 13 9 7 5 5 4 4 4 7 6 5 6 7 7 7 7 5 8 11 12 13 12 10 9 8 10 13 11 9 9 8 8 8 8 7 7 9 12 15 16 16 16 18 21 23 24 24 24 25 24 24 23 22 21 20 19 19 18 20 22 23 23 23 22 22 23 23 23 23 22 21 20 18 16 14 13 12 11 10 8
5 7 13 14 9 7 7 6 6 6 9 8 4 4 6 6 5 5 6 8 7 6 2 8 13 11 11 10 8 9 10 10 14 15 12 10 9 8 8 9 8 7 7 11 12 13 14 14 17 20 22 24 23 23 24 24 23 23 22 21 20 20 19 19 20 22 23 24 24 25 26 26 25 23 23 22 20 19 17 14 12 12 11 9 9 7
7 12 12 8 4 2 5 7 7 8 9 8 5 4 5 5 4 4 5 7 6 5 3 8 12 9 8 8 6 7 7 6 8 11 11 11 10 9 9 9 9 8 8 9 9 11 12 12 15 18 18 21 23 22 23 23 23 22 22 21 20 19 20 20 20 22 23 22 24 26 27 26 24 22 22 22 19 17 16 14 12 10 9 7 7 7
8 9 6 6 6 6 5 6 8 7 8 8 6 4 5 4 5 5 5 3 2 4 7 9 9 7 6 6 5 5 4 4 4 5 6 7 8 9 9 8 10 10 9 9 9 10 12 12 13 15 15 18 20 20 20 21 21 21 22 21 21 20 19 20 21 21 21 22 24 25 26 25 24 22 21 20 18 16 15 14 12 10 9 7 6 6
6 4 8 9 9 10 7 7 9 7 7 9 9 6 5 5 6 7 4 4 5 4 10 13 6 3 6 7 6 4 4 5 5 6 5 4 5 7 7 7 9 10 9 10 10 11 13 15 14 14 16 17 18 19 19 20 20 21 21 20 21 20 19 20 21 20 22 25 27 26 26 25 24 22 20 20 19 17 16 15 13 11 9 7 7 6
7 4 11 13 11 12 11 8 10 9 6 9 10 9 8 6 6 6 5 7 5 1 6 11 6 1 4 9 8 5 6 7 6 7 7 6 7 8 8 8 9 9 10 11 11 13 14 16 16 16 16 16 18 19 19 19 19 19 20 19 20 20 19 20 21 21 24 28 28 28 27 24 22 19 17 18 18 17 17 16 14 12 10 8 8 8
6 7 11 14 12 12 12 9 11 11 7 8 6 8 9 7 6 4 5 6 4 4 7 7 5 3 4 7 8 8 9 8 7 9 8 7 9 10 9 8 9 9 10 11 12 13 13 15 17 16 16 16 18 18 18 18 17 18 18 18 19 19 18 20 21 23 26 28 27 27 26 23 21 19 17 17 18 18 17 16 14 13 12 10 10 10
8 11 11 14 13 12 11 10 12 12 9 8 4 7 9 9 9 5 5 5 3 4 7 7 3 4 4 6 8 10 11 9 9 11 10 9 11 11 10 10 10 9 10 12 11 11 12 15 17 17 17 17 18 18 18 18 17 17 17 17 18 19 18 21 23 25 26 27 26 25 24 21 21 21 20 19 18 18 17 16 15 14 14 13 12 12
9 13 11 12 13 10 10 9 9 11 10 6 4 6 7 8 10 6 5 5 2 5 6 7 4 4 3 4 6 8 10 10 11 13 12 12 13 11 11 12 11 10 10 10 10 10 13 16 18 19 20 19 19 20 20 19 19 18 17 18 19 19 19 20 23 24 23 24 24 24 24 23 22 22 22 20 19 18 17 17 16 15 15 14 14 13
7 11 10 10 11 10 9 7 8 11 9 5 4 4 4 4 5 5 6 5 3 4 8 10 8 5 2 4 6 7 8 10 10 10 11 13 13 11 11 12 11 10 9 8 9 10 14 19 20 21 21 21 21 22 22 21 20 18 17 19 20 20 19 19 21 21 21 22 23 24 24 24 24 24 23 21 20 19 17 18 18 16 16 15 15 14
6 9 10 9 9 9 7 6 9 10 6 4 4 4 5 5 2 2 3 3 4 4 9 14 12 6 3 5 8 9 11 13 11 9 11 13 14 12 12 12 11 10 9 9 9 10 15 20 21 22 22 22 23 23 23 21 20 19 18 20 21 19 18 18 19 21 21 22 23 23 24 24 25 25 24 23 22 20 19 20 19 19 18 17 16 15
10 9 10 8 8 9 8 8 8 7 5 5 4 4 4 4 3 1 1 3 4 6 8 14 13 8 6 5 9 12 11 15 16 14 17 18 17 14 12 11 11 10 10 10 9 8 11 15 18 21 22 22 24 23 23 23 22 21 20 21 21 19 18 20 21 22 23 23 23 22 22 23 24 24 23 23 22 21 21 21 21 20 20 18 17 16
9 9 9 8 8 11 11 7 5 6 7 8 5 5 4 3 1 2 2 2 6 6 6 12 11 8 7 6 14 18 13 16 19 17 20 22 19 16 14 12 10 9 10 10 8 7 8 10 14 19 21 22 23 23 24 24 24 24 23 23 23 21 21 22 22 23 23 23 22 21 22 23 23 23 22 22 22 21 21 21 20 20 20 20 18 17
5 7 9 9 7 10 12 8 6 7 9 11 8 6 6 5 3 4 4 2 3 4 6 12 10 6 4 3 14 22 18 19 20 17 20 21 20 18 15 12 10 10 10 9 9 9 8 10 14 18 21 22 22 24 25 25 26 26 26 26 26 24 23 24 23 22 22 22 22 21 22 22 22 22 22 22 22 21 20 19 19 20 20 20 18 17
5 5 8 11 8 10 14 12 9 7 8 11 7 6 5 5 5 5 4 3 4 3 2 10 8 4 4 3 10 18 16 14 15 13 13 13 13 14 12 11 10 10 9 8 9 10 9 13 16 18 21 22 24 26 26 26 27 27 27 27 28 26 25 25 24 23 22 21 21 21 21 21 23 23 23 23 22 21 20 19 19 19 19 19 18 17
6 5 7 10 7 11 14 11 9 6 5 7 4 5 4 5 5 2 3 5 5 2 3 6 3 2 3 2 1 10 11 9 11 10 11 11 11 12 12 11 11 10 9 9 10 11 12 16 18 18 20 22 24 26 27 27 28 28 28 27 27 26 25 24 23 22 22 21 21 21 22 23 24 25 24 24 22 20 19 18 19 20 19 19 18 17
6 5 7 9 9 11 13 11 11 9 6 5 5 6 6 6 7 3 3 2 3 5 3 2 2 1 1 5 5 11 13 10 11 12 12 13 13 13 12 11 11 11 10 9 11 11 13 17 19 19 21 23 24 26 27 28 29 30 29 28 27 26 24 23 22 22 21 22 22 22 23 23 24 24 24 23 22 20 19 19 19 20 20 19 18 18
6 4 6 11 13 12 13 13 12 9 6 5 6 7 4 4 3 4 3 2 3 4 3 1 5 5 1 2 1 9 13 11 12 13 13 12 13 13 11 12 13 12 11 10 12 12 13 18 21 21 22 24 25 26 27 28 29 30 29 29 28 26 25 23 21 21 21 22 22 22 22 23 23 23 22 22 21 20 19 20 20 20 20 19 19 18
3 3 6 11 14 10 9 12 10 8 7 5 5 7 5 4 3 1 3 3 3 4 2 1 3 4 3 5 8 11 13 13 13 14 14 14 15 13 12 14 14 12 11 11 12 11 12 17 22 23 23 24 26 26 27 28 30 30 29 28 27 26 25 23 22 21 21 21 22 22 21 21 21 21 21 20 19 19 20 21 21 21 21 20 19 18
1 2 3 8 13 9 6 8 8 8 8 5 3 5 5 5 5 3 3 4 4 4 2 1 1 4 4 8 14 16 16 17 16 15 16 17 16 14 14 15 14 13 12 12 12 11 11 17 23 25 25 25 27 27 27 29 30 29 28 27 26 25 24 23 22 22 22 22 22 22 21 20 20 19 19 19 19 20 21 22 21 20 20 19 18 18
1 2 3 4 7 8 4 6 10 10 8 5 4 5 6 4 3 3 3 3 4 4 4 3 1 5 5 8 16 19 18 19 20 19 17 16 16 15 15 16 14 13 13 13 12 12 12 17 22 25 26 26 27 27 28 29 30 30 28 27 25 25 24 23 22 22 22 23 22 22 21 20 19 19 19 19 20 22 22 21 21 20 19 19 18 16
3 2 2 2 4 7 6 6 9 9 7 6 5 5 6 6 4 3 2 3 2 4 5 5 3 6 5 8 14 17 18 19 21 21 17 16 17 16 15 16 15 14 14 14 13 12 13 17 22 24 25 26 26 26 27 29 30 30 28 27 26 25 24 24 23 22 23 23 22 21 21 20 19 19 19 21 22 23 22 21 20 20 19 19 17 15
4 1 3 3 4 6 5 2 7 10 7 6 5 3 3 4 5 6 4 4 1 2 2 4 3 6 5 7 13 16 18 18 18 18 17 15 17 16 15 16 15 14 13 13 13 12 13 19 23 23 25 26 26 26 27 28 29 29 28 27 25 24 24 23 22 23 23 23 22 21 21 21 20 20 21 22 23 23 22 21 20 19 19 19 17 14
4 1 3 3 1 1 4 3 3 6 6 4 3 3 3 3 4 6 5 4 3 3 2 3 3 5 5 4 10 12 13 13 13 15 17 15 13 14 15 15 14 13 12 12 12 11 14 19 21 22 23 25 25 26 27 27 27 27 27 26 24 24 24 23 22 23 24 23 23 22 22 22 22 23 23 23 23 23 22 21 20 20 19 18 16 13
3 2 3 4 3 2 2 2 1 1 3 4 3 3 4 5 5 3 3 3 2 4 5 6 4 6 5 1 8 9 9 10 11 12 14 14 13 13 13 13 13 13 12 13 13 12 13 16 17 19 21 22 24 25 26 27 27 27 27 26 25 25 24 23 22 24 25 25 25 24 23 23 23 23 24 24 23 23 22 22 21 20 18 16 14 11
2 2 3 5 6 7 6 5 4 3 3 3 2 3 4 6 7 4 3 5 1 3 4 6 5 4 3 3 10 10 9 10 9 9 11 12 14 15 13 13 13 13 14 15 15 14 13 13 15 19 21 21 24 25 26 27 27 27 27 27 27 26 24 23 24 25 26 25 25 25 24 24 24 23 24 24 24 23 22 22 21 19 17 14 12 11
3 1 2 6 6 6 7 6 5 5 4 4 3 0 3 5 7 5 5 4 4 4 3 4 5 5 2 7 12 11 11 12 11 11 11 11 13 14 13 14 14 13 14 15 14 14 14 13 15 19 22 22 24 26 27 27 27 28 28 27 26 25 24 25 26 26 26 25 25 25 25 25 24 24 24 24 24 24 22 21 20 18 16 13 11 12
4 3 2 4 4 6 7 7 4 5 5 5 4 1 5 4 8 7 5 5 5 6 3 6 5 9 7 10 15 14 12 12 12 14 14 13 13 13 12 14 15 14 13 14 14 15 15 15 14 18 22 24 24 26 26 26 27 27 27 26 25 24 25 27 27 27 26 25 26 26 26 26 25 25 25 25 24 23 22 21 20 18 16 13 11 12
4 2 4 1 1 2 2 2 2 6 5 5 7 4 5 5 8 7 5 5 6 6 6 7 7 11 11 11 14 16 16 16 16 14 14 14 14 14 14 15 16 16 16 16 16 16 16 15 15 17 22 24 26 27 26 25 25 26 26 26 25 25 26 28 28 27 26 26 26 27 26 26 26 25 25 25 25 24 22 21 20 19 16 14 13 13
3 2 4 0 3 5 5 4 3 7 5 4 5 5 5 6 8 7 4 5 6 4 6 10 9 8 9 11 14 15 15 15 13 12 13 15 16 16 17 17 17 17 17 18 17 16 16 15 16 19 23 23 25 27 26 25 25 26 26 26 26 26 27 28 28 27 27 27 27 28 27 27 26 26 26 25 25 25 24 23 22 20 17 15 14 14
3 2 5 2 4 5 6 7 5 6 6 5 5 5 3 5 4 4 4 5 5 0 2 8 9 3 2 6 10 9 9 11 12 13 15 16 17 18 18 18 18 18 18 17 17 16 15 15 16 19 23 24 25 27 27 26 27 28 27 27 27 28 29 29 28 28 28 28 29 29 28 27 27 27 26 26 26 26 26 25 23 21 19 17 15 14
3 1 3 4 4 4 5 9 7 5 6 1 5 7 2 5 3 2 3 4 6 4 2 5 7 4 2 6 8 8 10 13 15 16 16 15 17 19 19 19 18 18 18 17 16 16 16 16 16 19 23 25 26 27 27 28 29 29 29 29 29 30 30 30 29 29 29 29 30 29 29 28 28 28 27 27 27 26 26 25 24 22 20 18 16 15
2 2 1 4 3 4 5 7 5 6 6 3 6 6 4 3 3 2 1 2 6 8 6 5 6 6 7 11 10 9 12 14 14 15 16 15 17 18 19 20 19 19 19 18 18 18 18 17 19 22 26 27 26 27 29 31 32 31 32 32 31 31 31 30 30 30 30 30 30 30 29 29 29 28 28 27 27 26 26 25 24 22 20 18 15 15
2 4 2 2 3 2 6 6 3 5 4 6 6 5 5 5 6 6 2 1 4 5 5 5 4 5 9 14 14 13 13 15 16 16 16 17 17 17 17 18 18 18 17 17 17 17 15 17 21 25 28 30 30 29 31 33 35 34 34 33 32 32 31 30 30 30 30 31 31 30 30 30 30 29 28 28 28 27 26 24 23 22 20 18 17 16
3 4 2 1 4 1 4 5 5 4 6 6 6 4 3 4 8 10 5 4 2 4 6 8 7 9 11 13 16 18 18 17 16 15 16 17 17 18 18 17 16 17 16 16 16 15 15 19 23 24 27 29 31 32 32 32 33 33 32 32 32 31 31 30 30 30 31 31 31 31 31 31 30 30 29 28 28 27 26 25 23 22 21 19 17 16
5 3 2 2 3 1 2 4 4 5 5 6 7 5 2 1 5 9 7 8 6 3 3 8 10 10 10 9 10 12 12 11 9 9 12 15 16 18 19 18 18 17 17 17 17 18 21 25 26 27 28 28 29 31 31 31 31 32 32 32 31 30 30 31 30 30 31 32 31 32 32 32 31 30 29 29 28 28 27 26 24 23 22 20 18 17
7 4 2 3 2 2 3 1 1 1 3 4 4 2 2 2 3 6 5 3 6 6 2 6 9 9 9 7 4 6 8 9 6 3 7 11 15 17 18 18 19 19 18 20 23 25 28 30 30 30 30 29 29 30 30 31 33 33 32 31 31 30 30 30 30 31 32 33 32 33 33 33 32 31 30 30 29 29 28 27 25 24 23 22 20 19
7 4 2 2 1 1 4 2 3 3 1 4 5 6 5 3 6 7 7 2 6 7 4 3 9 10 8 7 8 9 10 8 5 6 7 11 12 12 12 13 15 18 20 22 24 26 27 30 31 31 31 31 32 32 32 34 35 34 32 31 30 30 31 31 31 32 33 33 33 33 34 33 33 32 31 31 30 30 28 27 26 25 23 22 22 20
8 4 4 4 2 1 4 3 1 2 2 5 6 9 7 3 5 6 6 2 7 7 6 0 7 9 8 9 11 11 9 7 6 7 9 13 13 11 11 11 11 16 21 26 28 28 29 30 31 30 30 31 33 33 34 35 35 34 32 31 31 30 30 31 31 33 33 33 33 34 35 34 33 33 32 32 31 30 29 27 26 25 24 23 22 21
6 4 4 4 1 1 2 2 1 2 2 4 6 8 7 3 7 8 2 5 7 6 6 2 4 8 9 10 11 11 10 9 10 10 11 14 12 11 13 14 14 17 20 25 28 30 31 32 31 30 30 31 33 35 37 36 34 32 31 31 31 31 31 31 32 33 33 33 33 34 35 34 34 34 33 33 32 30 29 26 24 24 24 24 22 21
3 3 3 3 2 1 2 2 1 2 3 4 5 7 6 1 8 6 5 7 5 6 6 3 1 6 11 11 9 8 9 7 5 7 11 14 13 11 13 16 20 23 25 28 29 30 30 31 31 30 31 32 34 36 38 37 34 31 31 30 30 30 31 32 33 33 33 33 34 35 35 35 35 34 33 33 32 30 28 25 24 24 24 24 23 22
1 2 2 3 3 1 2 3 0 3 3 3 4 5 1 4 3 3 5 4 4 5 5 5 4 2 10 13 10 9 8 3 4 8 13 16 15 13 12 15 18 21 24 28 30 31 30 28 29 30 30 33 36 37 37 36 33 31 31 30 30 31 32 32 33 33 34 34 34 35 36 36 35 34 33 32 31 30 27 26 25 24 24 24 24 22
3 2 0 2 3 2 3 3 2 2 3 2 3 3 3 4 5 6 2 1 4 4 3 4 4 1 7 11 10 8 6 5 7 11 13 14 14 14 14 17 18 19 22 26 29 32 32 28 28 30 31 33 37 38 38 36 33 31 31 30 30 32 33 33 33 34 35 35 35 36 36 36 35 34 34 33 31 29 28 27 27 26 25 24 23 22
2 2 1 2 2 3 3 1 2 4 5 3 2 2 1 1 4 5 3 1 2 1 2 3 4 4 2 7 9 7 6 6 8 11 12 12 13 14 14 16 18 20 24 27 29 33 33 29 27 29 30 33 36 36 36 37 34 31 30 30 30 32 33 33 34 35 35 35 36 36 35 35 36 35 34 33 31 29 29 29 28 28 27 25 24 22
1 2 3 2 1 3 4 5 5 4 5 4 3 4 2 1 1 4 5 3 3 2 1 2 3 4 2 3 5 5 5 7 8 11 13 13 13 14 14 16 19 22 24 26 29 32 32 30 29 29 29 32 35 35 35 36 34 32 31 31 31 33 34 34 34 35 35 35 35 35 35 35 35 35 34 33 32 31 30 30 29 29 28 27 25 24
3 2 2 3 1 1 2 1 1 0 3 5 4 3 3 5 3 3 5 5 3 4 3 1 1 2 4 5 5 4 4 6 8 8 9 11 11 12 13 14 17 21 23 24 27 29 29 29 30 30 29 31 34 35 34 34 35 34 33 32 34 35 35 35 35 34 34 34 35 35 35 35 35 35 34 33 32 31 30 29 29 29 29 28 28 26
3 3 3 3 2 2 1 3 3 1 3 5 4 4 5 5 4 3 5 4 2 4 5 3 1 2 5 5 6 6 5 6 8 7 7 9 10 11 12 12 15 19 23 24 27 29 28 27 27 28 29 30 31 32 32 32 34 34 33 33 34 36 36 35 35 34 33 34 34 34 35 35 35 35 35 33 32 30 28 27 28 29 29 29 29 27
2 4 3 2 3 2 3 4 4 3 3 4 3 3 4 4 5 5 3 3 4 5 5 4 1 2 4 4 6 7 6 6 8 9 8 8 9 10 10 11 14 18 21 24 27 28 27 26 25 26 28 29 30 30 30 30 31 32 32 33 35 36 36 35 34 33 32 33 33 34 35 35 35 35 35 33 32 30 28 27 28 28 29 29 28 27
1 3 1 2 3 2 1 1 1 2 5 6 5 4 2 2 4 6 6 5 6 6 6 6 4 2 3 6 7 8 8 6 7 9 10 8 8 8 9 11 16 20 22 24 27 28 27 26 27 27 26 27 29 30 30 30 30 31 32 34 35 36 36 34 34 33 32 32 33 33 34 35 35 35 34 33 31 29 27 26 26 26 26 26 25 23
2 1 0 3 4 1 3 2 2 3 2 2 3 4 3 2 5 6 6 6 6 5 5 6 7 6 3 4 6 8 9 6 6 9 10 8 8 10 11 14 17 19 21 24 26 26 27 27 28 28 27 27 28 30 30 30 31 31 33 34 36 37 36 35 33 32 32 32 33 33 34 34 34 34 34 33 31 30 27 25 25 26 25 23 22 22
3 4 3 4 4 4 6 5 4 5 4 3 2 2 3 3 6 7 5 4 5 4 3 5 6 6 6 4 3 7 10 8 8 9 9 8 10 14 18 20 21 20 22 24 24 23 24 26 27 28 27 26 27 29 30 30 31 31 33 35 36 38 37 36 34 32 32 32 33 34 35 35 34 34 33 32 32 30 27 25 25 24 23 22 20 20
Wind_Direction
161 194 216 209 210 204 202 199 203 274 299 235 197 202 204 200 219 206 204 211 163 154 184 148 142 151 156 166 159 151 152 147 152 154 155 160 156 155 155 152 151 144 137 135 140 144 142 143 150 153 154 153 152 157 163 163 164 166 166 165 164 165 169 168 163 163 161 157 155 152 145 138 131 127 123 120 120 119 119 120 120 119 121 121 118 113
164 211 226 215 208 199 192 179 181 233 267 267 246 228 222 204 219 223 204 206 168 135 150 137 137 152 162 163 161 153 156 166 166 164 166 164 156 157 156 151 143 139 134 127 133 142 140 141 147 150 153 154 152 157 163 163 162 164 164 165 165 165 170 170 167 165 162 159 157 150 140 134 127 124 123 119 118 119 119 118 115 113 116 120 118 116
203 226 225 199 177 183 188 174 175 212 242 260 252 229 241 208 202 245 232 208 171 123 134 146 138 148 160 148 153 164 164 172 172 167 168 162 155 159 161 153 143 143 142 134 135 145 147 147 150 151 152 153 154 157 160 159 158 160 161 164 166 166 169 171 169 168 164 157 153 147 137 131 126 123 123 122 120 121 117 110 106 102 100 105 108 111
212 228 196 154 178 204 210 182 178 211 234 246 240 215 242 219 185 218 231 203 138 113 144 145 130 136 138 119 149 186 168 140 149 155 162 156 149 158 161 151 150 151 148 144 143 150 157 159 157 155 152 149 152 154 153 155 158 161 163 164 166 165 168 172 170 168 164 152 145 140 134 131 128 125 125 124 121 120 114 105 99 90 86 89 94 101
225 204 154 167 193 196 208 198 184 206 228 237 234 209 225 233 205 203 171 82 36 63 127 123 107 140 144 142 171 192 151 141 146 142 145 129 120 144 152 145 153 155 152 151 150 157 164 168 168 162 154 149 150 151 151 154 159 163 165 166 167 167 168 171 168 166 161 148 140 135 131 128 126 125 127 125 120 116 112 104 98 90 85 86 91 97
241 220 167 181 199 193 203 209 195 200 218 242 237 210 214 233 233 213 137 95 63 68 150 128 115 260 189 172 176 171 159 156 154 156 159 140 133 153 158 154 156 155 155 154 157 167 169 169 169 162 157 153 150 151 151 155 162 166 167 167 169 170 170 169 165 163 158 147 142 138 134 131 129 127 129 128 123 118 113 107 103 99 95 94 96 100
220 226 187 185 196 195 204 214 205 196 205 240 220 181 206 230 246 227 128 126 141 176 201 183 155 182 220 200 182 170 166 158 160 172 170 150 152 166 169 167 162 152 149 151 163 173 165 161 159 156 159 155 150 153 154 157 164 167 167 169 171 172 171 168 161 159 155 150 145 143 141 140 139 135 131 131 127 120 115 111 108 104 101 100 98 99
190 210 203 190 193 200 206 210 205 193 204 233 167 149 196 220 237 222 136 181 207 136 191 213 144 133 200 204 184 175 166 157 171 178 173 166 168 170 171 174 168 158 157 157 166 171 158 154 154 155 160 157 155 158 157 159 165 166 166 169 171 169 167 163 158 156 156 154 149 147 147 146 145 140 135 133 127 121 116 110 107 104 102 100 96 97
185 204 206 190 193 208 211 203 197 195 215 233 160 162 199 210 228 210 157 216 216 112 189 210 134 128 204 189 168 177 169 167 180 179 173 175 177 170 167 173 171 168 169 164 165 165 156 155 156 158 162 161 159 158 158 164 166 163 163 166 165 163 161 159 158 158 158 158 155 154 153 147 144 142 138 135 128 123 116 108 106 104 102 100 98 98
186 204 206 193 199 211 206 197 200 203 222 239 186 202 244 230 226 187 177 207 157 145 203 203 173 141 185 195 171 178 186 185 183 175 174 180 181 175 170 172 172 170 171 167 165 162 158 159 160 160 161 158 155 154 157 165 166 159 157 159 157 156 157 156 158 159 159 162 161 160 158 150 145 144 142 138 130 124 116 109 109 107 105 104 102 101
229 208 207 207 206 203 191 201 216 206 214 260 223 221 264 276 300 174 180 139 136 204 209 199 191 156 163 208 187 189 194 182 171 165 175 184 184 182 178 174 172 170 170 170 166 157 155 157 157 157 156 150 148 152 154 158 162 158 154 154 152 153 157 157 160 161 162 165 166 163 160 155 151 149 146 140 131 125 118 112 111 110 108 107 105 103
245 220 213 215 201 185 182 203 214 193 195 245 220 174 232 280 328 296 306 104 176 231 215 196 194 178 186 211 197 204 198 174 173 174 176 184 186 184 182 176 173 171 169 168 162 151 148 150 153 154 150 145 145 148 150 152 154 155 153 151 148 150 154 158 162 164 165 167 166 164 161 158 157 155 150 142 134 129 122 116 114 111 110 108 107 105
242 233 220 211 198 185 183 194 198 181 199 230 211 145 170 222 241 215 214 203 210 239 221 187 182 198 216 211 194 197 194 182 185 181 176 180 180 180 181 175 170 168 166 165 157 149 146 148 154 152 147 146 146 145 148 149 148 148 148 148 145 146 152 156 159 161 163 164 164 163 161 160 160 156 151 144 136 131 125 121 118 113 111 109 107 105
233 254 231 207 201 188 185 184 187 191 198 215 209 162 169 177 165 205 219 235 226 252 218 174 170 216 243 228 195 192 193 188 186 182 179 177 175 176 177 169 163 163 163 160 152 151 149 150 154 150 146 147 146 144 147 148 146 144 143 145 143 143 149 154 155 157 158 161 163 164 163 163 160 155 149 143 137 132 127 125 122 117 113 109 105 104
208 251 227 205 193 184 192 192 184 184 196 216 208 141 158 170 159 199 207 193 213 253 167 154 161 208 205 240 208 190 188 182 174 174 171 167 165 165 165 162 159 160 161 157 153 152 151 150 150 147 146 146 145 145 147 146 145 143 142 144 143 142 146 149 150 152 155 158 162 163 163 161 158 152 146 140 137 132 130 129 127 122 116 110 106 105
205 238 225 211 197 184 195 195 176 166 193 219 186 132 183 185 154 183 194 183 184 139 118 151 171 213 183 336 65 149 151 153 152 152 152 152 153 155 163 166 161 163 166 160 153 151 150 148 147 147 147 146 146 147 147 147 146 144 143 145 144 144 146 146 147 149 150 152 153 154 154 152 150 147 141 137 133 131 130 130 128 124 119 113 109 106
190 241 227 202 205 198 193 189 186 182 180 187 180 191 208 169 136 129 209 225 102 122 175 160 125 239 12 7 42 118 130 140 144 150 158 158 156 160 166 164 162 168 169 160 152 151 151 149 149 151 150 149 149 147 147 149 149 147 146 146 145 145 146 147 149 148 149 149 147 146 146 145 144 142 138 135 132 129 128 126 125 123 120 116 112 109
165 238 243 196 203 212 192 187 200 198 171 161 192 203 186 149 134 104 158 275 67 135 232 112 152 190 166 11 96 121 130 149 154 157 162 161 161 166 165 164 167 170 164 154 149 150 152 152 152 154 153 153 152 149 147 149 150 149 149 150 149 148 148 150 151 151 151 150 146 143 142 142 141 139 136 134 132 131 128 124 122 121 119 117 115 116
165 223 257 199 196 212 193 185 207 222 201 182 181 176 153 169 213 146 153 187 136 159 240 24 183 207 168 163 164 148 153 165 162 161 167 171 172 168 164 167 168 165 158 152 152 154 156 154 154 155 155 154 152 149 147 148 149 150 152 153 152 151 151 152 152 152 152 151 148 144 142 141 139 138 136 135 134 133 130 125 122 120 120 121 123 124
299 175 240 203 187 188 185 180 197 220 221 211 154 161 169 170 185 187 167 162 159 178 182 90 299 264 214 175 165 165 170 167 165 172 178 180 177 170 167 168 167 164 161 158 159 161 157 154 155 155 155 155 154 150 147 148 150 151 153 155 154 153 153 152 153 152 151 151 149 145 143 141 140 139 138 137 137 134 129 126 125 124 125 128 130 129
312 192 235 231 178 166 192 203 195 200 206 198 169 183 192 178 166 172 175 155 139 157 163 139 236 267 240 182 168 169 172 171 174 179 182 180 175 171 169 168 167 164 162 162 162 160 156 153 154 154 154 155 154 150 147 149 150 151 154 156 155 154 154 154 154 154 153 152 150 147 145 143 142 141 140 139 138 133 130 129 129 129 131 132 132 132
228 229 200 223 177 174 213 216 184 184 183 166 170 204 193 173 147 134 212 257 124 142 164 149 190 260 242 182 172 171 174 180 180 177 177 178 172 171 173 169 167 163 163 163 160 158 156 153 153 152 151 153 153 150 149 150 151 153 156 157 157 156 155 155 156 157 155 153 152 150 147 145 144 143 141 139 137 135 134 133 132 135 136 133 132 133
197 170 144 193 199 190 218 198 155 169 167 152 172 204 169 147 131 133 192 248 138 139 157 126 169 260 255 184 175 178 180 181 178 172 170 174 172 170 171 168 164 161 161 159 156 158 158 155 155 152 150 154 155 153 152 152 154 156 157 159 160 159 159 159 159 159 157 154 151 149 148 146 145 144 143 139 138 137 137 135 136 139 138 134 131 130
175 146 154 196 238 270 305 350 116 151 143 149 202 201 151 150 152 150 170 186 165 176 140 109 183 259 285 205 176 182 180 170 169 170 167 167 168 166 165 163 160 156 154 153 153 154 155 156 156 152 153 156 156 154 154 155 156 157 158 161 161 160 161 161 160 158 156 153 150 149 148 147 147 147 144 141 139 139 139 139 140 139 137 133 130 127
190 209 127 130 122 137 279 322 356 123 137 165 217 219 188 156 143 151 137 122 182 215 154 132 192 250 289 205 159 167 167 161 168 170 164 161 160 161 162 160 157 153 150 152 152 152 155 158 158 156 157 158 155 154 155 156 157 158 159 161 160 160 162 162 160 158 156 153 150 150 150 149 149 149 146 145 143 140 140 142 142 140 137 135 132 128
175 211 111 125 149 168 189 201 208 192 171 187 193 216 208 153 146 174 134 110 205 238 154 146 191 253 311 136 151 159 155 151 158 159 160 163 161 161 160 157 157 156 154 156 157 158 160 161 160 159 159 159 157 156 156 157 159 160 161 162 161 161 163 163 162 159 157 155 152 152 152 152 152 151 149 149 146 144 144 145 144 141 138 137 133 128
108 330 101 129 151 174 189 211 209 156 151 181 148 203 244 160 133 121 113 139 188 180 180 207 174 139 135 155 155 161 158 152 157 160 163 167 162 159 159 157 160 160 159 159 159 160 162 162 163 161 159 160 159 159 160 161 161 162 162 160 161 162 163 163 163 161 158 157 156 155 155 154 153 152 152 150 148 148 147 145 144 140 137 136 130 123
88 337 322 133 160 190 193 219 216 128 130 157 136 239 256 165 114 105 138 180 154 133 206 246 165 140 174 185 165 163 164 160 166 169 165 165 162 158 158 157 159 159 158 160 162 165 166 165 165 163 160 160 160 161 163 164 164 164 162 161 162 164 164 164 163 161 160 159 158 158 157 156 155 154 153 152 150 149 147 144 143 140 137 135 125 117
105 294 268 193 280 266 199 240 174 125 128 134 134 184 228 160 127 129 173 182 138 142 202 208 171 161 176 188 173 166 169 170 171 169 161 158 158 156 158 160 161 162 164 167 170 171 171 169 167 165 162 161 161 163 164 164 164 163 162 163 166 167 167 166 164 163 162 162 161 160 159 158 157 156 154 153 152 151 149 147 145 141 139 134 120 114
100 267 261 155 8 336 344 2 100 129 135 132 148 189 193 158 152 146 157 164 145 182 199 166 167 185 179 182 180 172 171 168 158 150 149 156 160 162 164 165 166 169 172 174 175 173 173 172 169 166 164 163 164 164 165 164 162 163 164 167 170 170 169 169 167 165 164 163 162 162 161 160 158 157 156 154 153 153 152 150 147 143 136 126 114 111
97 242 261 71 44 324 338 10 45 119 142 168 201 224 159 119 137 136 128 137 127 238 240 146 147 213 230 168 162 152 146 143 143 150 158 164 167 166 168 170 172 174 177 178 177 175 174 173 171 169 167 167 167 166 166 165 164 165 167 170 173 173 171 171 169 166 166 165 164 163 163 162 160 159 156 153 152 152 153 152 148 142 134 123 111 108
95 219 288 56 55 301 344 11 9 83 101 162 243 247 213 114 127 184 175 168 148 133 76 108 139 191 176 121 120 127 141 149 157 162 165 169 171 169 171 175 176 178 179 179 178 175 175 175 175 173 169 168 168 168 168 167 164 165 169 173 175 174 172 172 169 167 168 167 166 166 166 164 162 160 158 156 153 151 152 152 148 143 138 129 115 108
123 102 7 81 85 299 338 357 359 87 87 303 256 229 216 151 134 161 205 185 154 137 132 159 190 196 153 137 141 151 156 161 169 172 170 172 173 174 177 177 178 181 180 179 179 178 177 177 176 175 171 169 169 170 171 169 168 171 174 175 175 173 172 171 170 169 169 168 168 169 168 166 164 163 162 160 158 154 152 152 149 146 143 136 122 111
76 77 59 104 112 316 321 341 25 110 150 246 240 201 201 183 146 133 120 189 166 149 143 163 181 161 148 154 161 167 173 177 180 179 175 171 170 175 180 180 181 182 181 180 181 180 177 175 175 176 174 172 172 172 173 173 174 175 175 173 172 172 171 171 170 171 170 169 170 171 169 167 165 164 163 162 161 159 156 154 152 150 148 142 131 118
64 66 50 41 100 100 327 19 88 166 216 251 275 272 232 185 134 116 67 18 80 124 117 125 143 159 167 172 171 174 183 184 178 176 175 173 172 172 175 181 184 180 180 182 180 179 177 174 174 176 176 174 173 171 173 176 175 172 170 171 171 171 171 171 171 172 171 171 172 172 170 168 165 163 163 162 162 161 159 157 157 155 153 148 139 126
114 94 60 36 79 93 14 64 136 210 256 301 317 316 303 57 101 97 57 17 6 12 113 150 162 168 177 187 179 172 175 166 157 166 176 176 176 174 174 179 182 181 181 181 178 177 178 176 175 176 176 175 173 171 171 172 170 167 168 170 171 171 172 172 172 173 173 173 174 173 171 169 166 165 165 164 164 163 161 159 159 158 156 152 146 136
119 108 47 43 62 124 115 117 217 300 333 330 325 300 217 201 153 126 94 6 324 333 356 166 172 171 172 172 144 118 110 108 119 178 194 185 184 184 182 179 179 180 180 178 178 178 177 176 176 176 174 173 171 171 169 168 168 167 167 170 172 172 172 173 174 176 175 175 175 175 173 171 169 167 167 166 165 164 163 161 160 160 160 157 153 147
99 115 124 98 5 87 101 64 14 54 330 265 261 267 265 211 172 139 106 10 300 316 347 155 173 181 171 137 118 113 109 117 163 209 204 193 190 188 186 182 180 177 173 171 174 176 175 175 175 175 174 171 171 172 170 169 169 168 167 170 172 172 174 176 177 177 177 177 177 176 175 173 172 170 169 168 166 164 164 164 163 164 165 163 159 156
68 87 112 98 21 17 93 95 111 147 224 250 258 275 275 204 148 110 89 331 288 299 318 355 164 177 171 142 137 136 129 148 201 219 198 187 186 181 177 177 176 173 172 172 173 173 174 175 175 174 174 172 171 171 170 169 169 168 168 171 173 174 177 179 180 179 178 178 178 177 176 175 174 173 171 169 167 165 162 162 164 167 169 168 165 162
45 47 75 83 41 351 92 100 209 209 237 252 258 271 263 185 93 83 130 251 271 284 293 286 162 166 163 153 150 150 155 176 206 217 194 176 173 173 172 172 169 168 171 174 175 174 173 173 174 173 174 174 172 169 168 170 170 169 171 173 174 177 181 181 180 180 179 178 178 177 177 177 176 175 173 170 169 166 163 163 165 167 170 171 170 164
44 43 79 121 129 94 97 106 280 273 262 260 260 259 254 69 69 89 199 230 264 283 289 302 241 160 152 154 161 175 189 199 203 189 168 158 160 166 168 169 169 169 171 174 175 173 172 173 175 175 175 174 172 170 169 170 171 172 174 175 178 181 182 180 180 180 179 179 178 177 178 178 177 177 175 173 170 167 166 167 166 165 165 167 167 164
110 42 56 132 146 143 118 115 9 277 253 249 264 265 270 80 96 210 222 218 241 273 311 342 327 166 152 163 179 191 196 186 107 133 149 156 161 160 156 160 165 170 173 172 172 171 171 173 175 175 175 174 173 172 173 172 173 175 176 178 182 183 181 179 179 180 179 179 178 178 179 179 179 179 178 175 172 169 168 171 172 170 166 165 167 167
167 142 281 203 179 137 79 76 94 216 247 301 336 338 35 95 185 214 235 286 241 250 358 6 330 280 166 177 191 190 171 143 132 144 154 158 158 155 157 164 166 169 170 170 172 173 172 172 174 174 174 174 174 175 175 174 175 176 177 181 183 181 178 178 180 180 179 178 178 179 181 181 181 180 179 177 174 172 172 175 179 180 178 176 175 176
124 138 194 224 184 124 107 150 198 213 253 308 39 117 173 200 195 173 136 12 283 276 66 29 345 327 204 185 185 172 152 148 150 152 153 156 157 158 163 167 167 169 171 171 173 174 172 171 172 172 172 174 176 177 177 176 175 175 178 182 180 177 177 179 180 179 178 178 179 181 182 183 182 181 180 178 177 176 177 181 186 187 187 186 184 185
227 204 169 154 154 145 160 198 218 234 274 325 69 126 157 41 95 148 133 87 13 354 48 81 34 16 40 137 143 136 144 158 157 155 156 159 161 161 163 167 169 169 170 171 173 174 173 171 169 168 171 175 177 178 180 179 176 176 178 180 177 176 178 179 179 178 177 178 180 181 182 182 181 182 182 180 179 180 182 185 188 190 192 193 192 193
265 272 131 121 90 73 98 207 248 325 332 343 17 70 89 76 79 106 94 71 12 340 353 35 94 69 77 101 109 105 134 157 151 145 147 149 153 158 160 164 168 166 166 168 171 172 172 170 168 168 169 174 178 180 181 181 179 177 177 178 177 178 179 178 177 177 177 179 181 181 181 180 180 182 182 182 183 185 187 189 192 193 194 195 196 199
315 19 56 74 71 77 56 313 306 360 1 346 2 38 56 54 46 59 78 76 34 17 13 341 270 108 88 98 116 120 136 146 135 127 132 140 148 157 159 159 162 164 166 168 169 170 169 167 167 167 168 172 178 180 180 180 181 179 177 177 178 178 178 177 176 177 178 179 180 180 180 179 179 181 182 184 186 188 190 192 193 193 193 195 198 202
337 35 46 42 46 106 187 250 283 308 355 10 42 77 76 53 33 22 26 49 57 43 17 353 355 119 103 107 122 127 133 144 139 134 138 145 151 156 159 158 157 159 163 165 167 167 167 167 167 167 167 170 175 178 178 179 180 179 177 176 177 177 176 177 177 178 179 179 179 179 179 179 179 181 182 184 187 190 190 190 191 192 194 196 199 203
16 26 32 97 67 71 166 217 320 5 20 17 24 39 51 84 58 28 9 25 47 43 27 21 14 18 112 129 134 130 131 144 149 141 139 144 149 149 150 149 151 155 159 163 166 168 168 168 167 167 168 170 173 175 177 178 179 180 178 176 176 176 175 176 178 178 179 179 179 178 179 179 180 181 182 184 188 191 192 193 196 198 199 201 205 208
77 44 40 102 97 133 211 210 178 129 93 360 1 24 16 46 74 55 25 16 28 36 43 38 17 4 36 112 132 133 135 145 154 146 143 147 151 148 145 145 149 155 159 162 166 169 169 168 167 167 167 170 172 174 176 178 179 179 178 177 177 177 176 176 176 177 178 178 178 178 178 178 180 181 183 185 188 190 193 196 200 203 205 210 216 221
154 178 170 137 152 208 225 217 178 139 146 211 208 66 38 56 78 69 44 10 3 2 38 65 52 22 2 1 66 130 146 153 153 150 147 148 153 152 151 152 154 157 161 163 165 166 166 167 167 168 168 169 172 173 175 177 178 178 178 178 178 179 178 177 176 177 178 179 179 179 178 178 179 181 184 187 189 191 194 197 200 206 213 218 222 220
Height
755 764 763 755 747 745 747 751 755 754 752 754 755 754 753 753 752 746 740 735 734 745 755 760 772 777 778 780 780 782 785 786 787 787 788 790 791 793 793 795 796 795 795 797 799 800 801 803 804 805 805 806 806 807 809 809 809 810 812 814 816 818 820 822 823 824 824 825 826 828 829 831 833 835 837 837 838 838 838 838 838 837 836 836 835 836
755 762 754 745 744 745 747 750 752 755 753 754 757 756 754 752 749 742 738 736 733 744 761 765 772 779 777 779 781 781 785 786 784 785 787 788 791 792 793 794 795 795 796 797 800 801 802 804 805 806 806 805 806 807 809 808 808 809 811 813 815 817 820 822 823 824 824 825 826 828 830 832 834 836 837 838 838 839 839 839 839 839 837 837 836 837
757 753 743 744 747 745 746 747 750 754 754 756 758 758 758 751 747 743 737 735 733 747 769 772 773 781 778 778 783 783 784 784 783 783 784 786 790 792 793 793 794 795 796 798 800 802 803 805 806 808 808 806 806 806 807 808 808 809 811 813 815 817 820 823 824 825 825 827 828 829 831 833 835 837 838 838 839 840 839 840 840 840 839 838 838 838
757 747 742 745 745 745 748 747 749 754 755 757 758 761 760 749 747 749 742 739 739 747 765 772 774 781 781 781 784 784 783 784 785 785 786 786 789 792 792 792 792 793 795 798 800 802 804 805 806 807 807 806 805 806 807 807 808 809 811 813 815 818 820 823 825 826 827 828 830 831 832 834 835 838 839 840 841 841 840 840 840 840 840 840 840 840
750 741 739 742 743 745 749 748 749 755 757 754 754 757 757 749 745 745 743 745 750 755 760 768 783 787 783 786 787 783 783 785 786 787 789 789 790 792 792 792 792 791 793 796 798 800 801 802 804 804 805 805 805 806 807 807 808 809 812 814 816 818 820 822 824 826 828 829 830 832 833 835 837 839 841 841 842 841 840 840 840 840 841 841 841 841
747 738 735 740 743 743 746 748 747 751 758 755 749 749 749 747 743 742 744 749 765 778 765 762 789 799 787 785 786 784 785 787 787 789 790 791 792 792 792 791 791 791 791 793 794 794 796 798 800 802 803 803 804 805 807 808 809 811 813 814 816 818 820 822 824 826 828 829 830 831 833 835 837 840 842 842 842 841 840 839 840 841 841 841 841 841
743 737 734 738 742 742 745 746 742 743 757 758 745 740 743 745 745 746 748 752 768 780 764 754 778 799 794 786 784 784 786 788 787 789 789 790 791 791 790 790 789 789 790 791 791 791 793 795 797 800 801 803 804 806 807 808 809 811 813 815 816 818 820 822 824 825 828 830 831 832 834 836 837 839 841 843 843 842 840 840 840 840 841 841 840 840
735 736 737 737 740 743 743 742 736 737 750 751 737 735 741 744 746 748 750 754 760 764 762 757 765 787 795 786 781 782 785 789 789 788 788 788 789 788 788 788 788 788 788 789 791 791 792 794 796 798 800 802 803 805 807 808 810 812 813 815 817 818 820 821 823 825 828 831 832 833 835 837 838 839 841 843 843 842 841 840 840 840 840 840 840 841
729 735 737 736 740 742 737 733 731 734 743 741 733 734 738 739 743 745 749 753 754 762 775 769 762 783 796 784 780 784 785 789 788 785 786 786 785 785 786 787 787 787 787 788 790 790 791 792 795 797 799 801 803 804 806 808 810 812 813 815 817 818 820 822 823 826 829 831 832 833 835 837 839 840 842 843 843 842 841 839 840 840 840 841 842 843
727 729 729 733 737 735 730 728 727 732 737 733 732 735 735 737 739 743 748 751 756 770 779 770 761 779 797 788 783 788 785 784 784 783 783 783 782 783 783 784 785 786 787 788 789 788 789 792 794 797 799 800 802 803 806 808 810 812 814 815 817 819 821 823 825 827 830 832 833 834 835 836 838 839 841 842 841 841 840 839 840 841 841 842 844 844
725 722 722 725 727 726 726 726 725 728 731 730 733 738 740 741 740 743 746 750 766 778 769 761 756 763 785 790 780 776 770 768 775 780 781 781 780 780 781 782 784 784 785 787 787 788 789 791 794 796 799 800 801 803 805 808 810 812 814 815 817 820 822 823 826 828 830 832 833 834 835 836 837 839 840 840 840 840 839 839 841 841 842 843 845 845
726 725 722 716 716 719 723 725 723 724 727 730 734 741 749 751 748 751 753 755 772 777 757 750 752 752 769 779 770 761 756 756 764 769 773 775 776 776 777 780 782 782 783 785 786 787 789 791 794 796 798 800 801 803 805 807 810 811 814 816 818 820 822 824 826 828 830 832 833 834 835 836 837 838 839 838 839 839 839 839 841 842 842 843 845 846
730 726 719 715 713 713 721 728 728 726 728 732 737 745 756 762 762 764 765 764 766 760 745 742 750 753 755 756 753 752 752 751 753 755 760 765 768 771 774 777 780 780 782 784 785 787 789 791 794 795 797 800 801 803 806 808 810 812 814 817 819 821 823 825 826 828 830 832 833 835 835 836 837 838 838 838 838 838 838 840 841 842 842 844 845 846
735 728 719 718 714 707 713 726 731 730 729 731 736 745 756 764 772 774 770 768 762 749 739 737 746 755 750 740 739 741 742 741 744 748 752 756 760 765 769 774 778 780 782 783 785 787 789 791 793 795 797 800 802 804 806 808 810 812 815 817 819 822 823 825 827 828 830 832 834 835 835 836 837 837 837 838 838 838 839 840 842 843 843 844 845 847
741 737 722 715 711 704 705 712 717 722 725 726 725 735 747 751 759 766 763 761 756 748 744 742 749 756 747 735 731 730 733 736 741 748 753 757 761 764 769 773 777 780 781 782 784 786 789 791 793 795 797 799 802 804 807 809 810 813 815 818 819 822 824 825 827 828 830 832 834 834 835 836 836 836 837 838 838 838 839 841 842 843 844 845 846 847
736 733 712 702 702 699 703 705 705 716 727 725 720 730 741 736 737 748 752 748 744 746 751 749 751 751 740 732 730 729 736 742 746 752 758 762 765 767 770 773 775 778 779 780 783 785 788 791 793 795 798 800 802 804 806 808 810 813 815 818 820 822 824 825 827 829 830 832 833 834 835 835 835 836 837 838 839 840 841 842 843 844 845 846 847 848
731 726 703 699 701 696 700 702 700 712 722 723 725 731 729 722 724 738 749 747 740 746 754 753 755 754 744 741 739 736 742 749 752 757 760 763 766 768 769 771 774 776 777 779 781 784 787 789 793 796 798 800 802 803 806 808 810 813 815 818 820 822 824 826 827 829 831 832 833 834 834 835 836 836 837 838 839 841 842 843 843 844 845 847 848 849
719 721 703 697 703 696 693 697 699 701 706 717 727 723 717 720 724 730 744 751 748 750 753 752 755 756 752 753 752 747 751 755 756 759 762 765 767 768 769 770 772 774 776 778 780 784 787 789 792 795 798 800 802 803 805 808 811 813 816 818 820 822 824 826 827 829 831 832 833 834 834 835 836 837 837 838 840 841 842 843 844 845 846 847 849 849
711 718 705 694 700 697 690 699 708 702 697 706 712 708 714 731 735 733 742 751 754 756 754 753 754 750 749 755 755 752 754 756 758 760 762 764 765 766 768 769 770 773 776 778 781 784 786 788 791 794 797 800 802 804 806 808 811 813 817 819 820 822 824 825 827 829 831 832 832 834 834 835 836 837 838 839 840 841 842 843 844 846 847 848 849 850
711 716 711 694 691 695 695 703 715 711 701 700 703 704 708 719 725 728 734 740 747 752 753 758 762 750 740 743 745 745 747 749 755 757 757 758 760 761 764 765 768 771 773 776 780 782 784 786 789 792 796 799 801 804 806 808 811 813 816 819 821 822 824 826 828 829 831 832 833 833 834 835 836 837 838 839 840 841 842 844 845 846 848 849 850 851
713 714 713 701 691 697 703 703 705 709 707 706 711 713 710 709 714 719 726 728 731 741 750 762 767 748 728 728 732 734 737 740 743 747 748 752 755 757 759 761 764 768 771 774 777 780 783 785 789 792 795 798 801 804 806 808 811 813 816 818 820 822 824 826 828 829 831 831 832 833 834 835 836 837 838 839 840 842 843 845 846 847 849 850 851 852
713 712 711 707 701 702 701 692 690 697 702 705 708 710 709 709 714 724 733 726 718 728 740 749 755 738 717 717 723 725 727 729 731 735 741 747 750 754 756 757 760 764 768 772 775 779 782 784 788 791 794 798 801 803 806 808 810 813 815 818 820 822 824 826 827 829 830 831 831 832 833 835 836 837 838 839 841 842 844 846 847 848 849 850 851 852
704 707 709 707 702 698 692 685 686 689 693 697 699 701 705 707 710 722 732 725 717 723 728 731 737 729 715 713 716 717 717 720 725 730 737 743 747 751 754 756 759 763 766 770 774 778 781 784 787 790 793 797 800 803 805 808 810 813 815 817 820 822 824 826 827 828 829 830 831 832 833 834 836 837 839 840 842 843 845 846 848 849 850 851 852 853
700 706 707 704 699 693 687 684 684 685 690 697 698 697 701 703 702 707 715 716 717 721 724 731 737 729 717 713 713 714 716 719 725 730 734 742 746 750 753 755 759 764 767 771 774 777 781 784 787 789 793 796 799 802 805 808 811 813 815 817 819 821 824 825 826 827 828 829 830 832 834 835 837 838 839 841 843 844 846 847 848 849 850 851 852 853
699 704 703 705 708 706 702 699 697 694 694 698 698 695 695 697 698 700 707 712 718 720 720 728 735 729 720 716 715 718 722 726 730 732 735 740 746 750 753 756 760 764 768 772 775 778 781 784 786 789 792 795 798 801 804 807 810 812 815 817 819 821 823 824 826 827 828 829 831 832 834 836 837 838 840 842 843 845 846 847 848 849 851 851 852 852
695 700 699 704 714 718 718 714 707 701 697 696 696 693 692 695 697 700 707 715 723 726 721 720 726 729 726 722 719 723 728 732 735 737 739 741 744 748 752 756 760 764 767 771 773 777 780 782 785 788 791 795 797 800 804 807 810 812 815 817 818 820 822 824 825 827 828 830 831 833 835 836 838 839 841 842 844 846 847 848 849 850 851 852 852 852
691 697 695 697 703 706 708 704 696 693 696 698 697 694 694 697 698 702 709 714 717 722 721 717 719 729 733 728 724 727 731 733 737 739 742 745 745 748 751 755 759 762 765 769 772 775 779 781 784 786 790 794 797 800 803 806 809 811 813 815 818 819 821 823 825 826 828 830 832 834 835 837 838 840 841 843 844 846 847 848 849 850 851 852 852 853
692 697 696 696 696 695 697 694 688 687 691 695 695 695 697 699 699 701 707 708 711 718 723 721 718 724 732 729 723 726 731 733 736 737 740 743 746 749 753 756 759 763 766 769 772 775 777 780 782 785 788 792 796 799 802 806 808 810 812 814 816 819 820 822 824 826 829 831 832 834 836 837 839 840 842 843 845 846 847 848 849 850 851 852 853 853
694 699 697 696 694 690 691 692 688 685 686 690 693 694 698 700 697 697 700 703 709 712 713 717 718 717 722 725 722 720 724 726 730 733 736 741 745 749 754 757 760 763 766 768 771 773 775 778 780 783 786 790 794 797 801 805 807 809 811 813 816 819 821 822 824 826 829 831 833 835 836 838 839 841 842 843 845 846 848 848 849 851 852 853 853 854
695 700 698 695 691 688 688 689 687 686 686 689 692 693 698 700 695 693 697 700 705 707 705 710 717 715 713 717 716 714 716 720 726 733 738 742 746 749 752 756 759 761 763 765 767 770 773 776 778 781 785 788 791 795 799 802 804 807 809 813 816 819 821 822 824 826 829 831 833 835 837 838 840 841 842 843 845 847 848 849 850 851 852 853 854 854
695 701 699 692 692 693 690 686 686 688 690 692 692 692 697 702 698 696 699 700 701 707 711 713 716 716 712 710 713 716 718 723 730 736 739 741 743 747 751 754 757 759 761 763 765 768 771 774 777 779 782 786 789 793 796 799 802 805 809 812 816 818 820 822 824 826 829 831 833 835 837 838 840 841 843 844 845 847 848 849 850 852 853 854 854 855
693 699 698 694 698 700 693 690 690 690 693 697 695 692 696 701 700 698 698 698 695 703 718 723 718 716 714 712 716 721 723 727 732 735 738 740 742 745 749 752 754 756 759 761 764 767 770 772 775 777 779 784 788 791 794 797 800 804 808 811 815 817 820 822 824 826 829 831 833 835 837 838 840 841 843 844 845 847 848 849 851 852 853 854 855 855
693 695 697 700 705 703 697 697 695 693 703 710 702 698 701 701 699 697 696 695 693 699 715 720 711 709 711 712 717 725 726 729 731 731 733 737 741 744 745 747 750 752 754 758 761 763 766 769 772 775 778 782 786 790 793 796 798 802 806 810 813 816 819 821 824 826 829 831 833 835 837 838 839 841 843 844 846 847 848 849 851 852 853 854 855 856
693 694 699 703 705 706 703 701 701 707 717 715 702 699 704 698 693 696 698 697 698 699 703 706 705 708 711 709 713 721 724 723 723 723 725 729 735 741 744 746 748 750 752 756 758 761 764 767 771 775 777 780 784 788 792 795 797 800 804 809 812 815 818 821 823 826 828 830 833 835 836 838 839 841 843 844 846 847 848 850 851 853 854 855 856 857
695 696 702 704 705 709 709 706 713 723 719 706 696 696 700 697 690 693 699 701 702 701 696 698 705 710 709 705 705 709 712 713 716 720 722 725 728 733 740 744 746 749 752 755 758 762 765 767 771 774 777 780 783 786 791 794 797 800 804 808 811 814 817 820 823 825 827 829 832 834 836 837 839 841 843 845 846 847 849 850 851 853 854 855 857 858
694 698 703 706 710 715 714 714 722 724 711 700 697 695 697 699 694 693 703 707 707 706 699 696 703 708 707 707 705 705 708 713 719 723 724 726 728 729 734 738 742 745 748 751 754 758 762 765 769 772 776 780 783 786 789 793 796 800 804 807 810 813 816 819 822 824 826 828 831 833 835 836 838 841 843 844 846 847 849 850 851 853 854 856 857 859
689 698 705 710 716 718 719 719 718 717 712 705 700 695 694 695 691 692 707 713 709 708 706 701 704 708 707 709 711 711 714 722 730 732 729 728 729 729 729 732 735 739 743 747 752 755 759 763 767 771 775 778 782 786 789 792 796 799 803 806 809 812 815 817 820 822 824 827 829 831 834 835 838 840 843 844 845 847 848 850 852 853 854 856 857 859
687 697 706 713 719 717 718 720 720 722 720 710 702 696 692 692 688 687 702 714 710 705 706 704 705 708 708 712 716 717 720 730 737 734 729 729 730 731 733 734 736 739 743 747 752 756 760 763 767 771 774 777 780 784 788 791 795 798 801 805 807 810 813 816 818 820 823 825 828 830 833 835 837 840 842 843 845 846 848 849 852 853 855 856 857 859
695 701 704 711 718 716 714 720 724 724 719 711 703 696 692 693 688 685 702 719 713 704 705 704 701 705 710 714 717 718 724 736 738 728 722 725 728 730 734 737 739 742 745 747 751 754 758 763 767 770 774 776 778 782 786 791 793 796 799 802 805 809 811 813 816 819 821 824 827 830 832 834 837 839 842 843 844 846 847 849 852 854 855 856 857 859
700 703 705 711 718 718 716 720 722 717 712 709 704 697 694 691 687 695 718 726 712 703 705 702 697 701 708 712 715 716 720 727 725 716 713 719 724 728 731 734 738 742 745 748 751 753 757 762 765 769 772 775 777 780 784 789 792 795 798 800 804 806 808 811 815 818 821 824 827 829 832 834 837 839 841 843 844 846 847 849 851 854 855 856 858 859
704 706 710 713 717 718 718 719 720 715 708 705 702 698 694 691 695 712 726 720 706 703 703 699 696 700 706 710 713 712 709 707 706 704 708 716 722 726 730 733 736 739 742 746 750 753 757 761 763 767 770 774 777 780 783 786 790 793 797 799 802 804 807 810 814 817 820 823 826 829 831 833 836 839 841 843 844 845 847 849 852 854 855 856 857 859
708 709 714 715 716 718 718 718 722 718 706 700 700 696 692 698 712 720 715 708 706 704 700 697 696 699 703 705 705 704 702 701 702 704 708 714 719 724 729 733 737 740 743 746 749 752 756 759 763 766 770 773 776 779 782 785 788 792 795 798 800 802 806 810 813 816 819 822 825 828 830 833 836 839 841 843 844 845 847 849 852 854 855 856 857 858
707 710 715 716 715 719 720 721 725 721 708 700 699 697 697 705 714 712 706 706 708 704 700 699 697 698 702 701 700 700 700 702 704 706 709 713 717 722 726 730 733 737 741 744 747 750 753 757 761 764 768 771 775 777 780 783 786 790 793 796 798 802 806 809 813 815 818 821 824 827 829 832 835 838 840 842 843 844 846 849 851 853 855 856 857 858
708 710 713 713 712 715 720 722 722 716 708 702 701 702 705 705 704 704 705 707 705 702 701 700 697 698 700 699 698 700 701 703 706 708 711 715 718 722 725 728 731 735 738 741 745 748 751 755 759 763 767 771 774 776 779 781 784 788 792 795 798 802 806 809 812 815 817 820 823 826 829 831 834 837 839 841 842 844 845 848 850 852 854 855 856 857
710 709 709 711 712 712 714 715 714 710 707 704 701 702 705 703 702 704 705 704 703 702 701 699 699 699 700 699 699 701 702 704 706 707 709 713 717 720 724 727 730 733 737 741 745 748 750 753 757 762 766 770 773 776 778 780 783 787 791 794 798 801 805 808 811 814 816 819 822 825 828 831 833 836 838 840 841 842 844 847 849 851 853 854 855 856
708 707 708 709 711 711 711 711 710 707 706 705 703 703 703 703 703 703 702 703 704 702 699 699 699 698 699 700 700 702 704 705 706 708 711 713 717 721 724 727 731 734 737 741 744 748 751 754 757 760 764 769 772 774 777 780 782 785 789 793 797 800 804 807 810 813 816 818 821 824 827 830 832 835 837 839 840 842 844 846 848 849 851 853 854 855
708 706 708 709 710 713 715 714 711 708 707 706 706 705 703 702 703 703 703 704 703 701 700 700 699 699 699 700 700 703 706 707 708 711 714 716 719 722 724 728 731 734 737 740 744 748 751 754 757 759 763 767 771 773 777 780 782 785 789 792 796 800 803 806 809 812 815 817 820 823 826 828 831 833 836 838 839 842 844 846 847 849 850 851 852 853
710 708 711 713 713 715 717 715 713 712 710 708 707 707 705 704 704 703 704 704 703 703 702 701 701 700 700 701 703 705 708 709 710 713 716 718 721 723 725 728 731 734 738 742 744 748 751 753 756 759 762 766 770 774 777 780 783 786 789 792 796 799 802 806 809 811 814 817 820 822 825 827 830 832 835 837 838 841 843 845 846 848 848 849 850 851
713 712 714 716 717 718 718 716 714 714 713 711 709 709 707 706 705 705 705 705 704 704 704 703 703 702 701 703 705 705 708 712 712 713 716 720 722 724 727 729 732 735 738 741 744 747 750 753 756 759 762 766 769 773 777 780 783 786 788 791 795 798 801 804 808 811 814 816 819 822 824 827 829 831 833 836 838 840 842 844 846 847 848 849 850 851
714 715 715 716 719 719 717 714 713 714 715 715 712 710 709 708 707 706 706 706 706 706 706 705 705 705 704 705 705 706 709 713 714 715 717 719 722 725 727 730 733 736 739 742 745 748 750 753 755 758 762 766 769 772 776 779 782 785 787 791 794 796 799 803 806 810 813 815 818 820 823 825 828 830 832 834 837 839 841 843 845 846 847 848 849 850
714 713 711 711 714 715 713 711 711 712 714 715 713 711 710 709 708 708 709 709 708 708 707 706 706 706 706 706 707 707 709 712 714 716 718 720 722 724 726 729 733 736 739 742 745 748 751 754 756 759 762 765 768 771 774 777 780 783 786 789 792 794 797 800 804 808 811 813 816 818 820 823 826 828 831 833 835 837 840 841 843 845 846 847 848 849